Regional Weather Roundup
Issued by NWS Sioux Falls, SD

Home | Current Version | Previous Version | Graphics & Text | Print | Product List | Glossary On
Versions: 1 2 3 4 5 6 7 8 9 10 11 12 13 14 15 16 17 18 19 20 21 22 23 24 25 26 27 28 29 30 31 32 33 34 35 36 37 38 39 40 41 42 43 44 45 46 47 48 49 50
000
ASUS43 KFSD 280802
RWRFSD

WEATHER ROUNDUP FOR SE SOUTH DAKOTA/SW MINNESOTA/NW IOWA
NATIONAL WEATHER SERVICE SIOUX FALLS SD
300 AM CDT SUN AUG 28 2016

NOTE: "FAIR" INDICATES FEW OR NO CLOUDS BELOW 12,000 FEET WITH NO
SIGNIFICANT WEATHER AND OR OBSTRUCTIONS TO VISIBILITY.


SDZ038>040-050-052>070-280900-
SOUTHEAST SOUTH DAKOTA

CITY           SKY/WX    TMP DP  RH WIND       PRES   REMARKS
BROOKINGS      CLEAR     64  62  93 SE10      30.02R
CHAMBERLAIN    CLEAR     71  66  83 S6        29.95S
HURON          CLEAR     67  64  90 S13       29.94S
MADISON        FAIR      64  64 100 S9        30.03R
MITCHELL       CLEAR     69  65  86 S10       29.97F
SIOUX FALLS    CLEAR     68  65  90 S9        30.02F
WINNER         FAIR      72  65  78 S13       29.96S
YANKTON        CLEAR     68  63  83 S10       30.00F
$$

MNZ071-072-080-081-089-090-097-098-280900-
SOUTHWEST MINNESOTA

CITY           SKY/WX    TMP DP  RH WIND       PRES   REMARKS
FAIRMONT       FOG       57  57 100 SE3       30.09F VSB 1/4
JACKSON          N/A     63  59  88 SE6       30.09F FOG
LUVERNE        CLEAR     61  59  94 CALM      30.05F
MARSHALL       CLOUDY    63  62  97 SE6       30.06R
MONTEVIDEO     CLOUDY    63  63 100 S6        30.07R THUNDER
REDWOOD FALLS  CLEAR     62  59  90 S8        30.05F
TRACY          CLEAR     64  62  93 S7        30.05F FOG
WINDOM         CLEAR     63  61  94 SE6       30.07F
WORTHINGTON    CLEAR     60  59  96 SE7       30.07F FOG
$$

IAZ001>003-012>014-020>022-031-032-NEZ013-014-SDZ071-280900-
NORTHWEST IOWA

CITY           SKY/WX    TMP DP  RH WIND       PRES   REMARKS
CHEROKEE       CLEAR     60  60 100 CALM      30.08S FOG
DENISON        FOG       64  63  94 CALM      30.06S VSB 1/2
ESTHERVILLE    FOG       55  55 100 E3        30.09S VSB 1/4
LE MARS        CLEAR     66  64  94 S6        30.06S
ORANGE CITY    CLEAR     64  63  94 S3        30.07S
SHELDON        CLEAR     63  63 100 E5        30.05S
SIOUX CITY     CLEAR     64  62  93 E7        30.05F
SPENCER        CLEAR     61  59  93 SE5       30.08S FOG
STORM LAKE     CLEAR     61  61 100 SE7       30.09S FOG
$$

ABBREVIATIONS USED IN REMARKS
   TC - TEMPERATURE IN CELSIUS
  WCI - WIND CHILL INDEX
   HX - HEAT INDEX
  VSB - VISIBILITY





USA.gov is the U.S. government's official web portal to all federal, state and local government web resources and services.